STARLINK-11442, 62885

Orbit data source: Space-Track

STARLINK-11442, 62885 is a payload satellite owned by SpaceX/Seattle (US) in LEO that was launched on Tue, 04 Feb 2025 UTC via an FALCON 9 launch vehicle from the Air Force Eastern Test Range (AFETR). Payload-class satellites include a variety of spacecraft equipped with specific instruments for various scientific and technological missions. These include communications satellites like Starlink; space stations such as the ISS; scientific satellites like the Hubble; Earth observation satellites from companies like Planet Labs, Umbra, and HawkEye 360; GPS; miniature CubeSats for education and research; and military/defense satellites.

Loading next visibility...
Identifier
62885, 2025-024G
Orbit
LEO
Last TLE update
16 hours ago
Origin
Manufacturer
SpaceX/Seattle
Mission
Operational Commercial Communications
Bus & Motor
STARLINK V2M, Unknown motor
Mass
730 kg wet, ~700 kg dry
Launch date (UTC)
2025-02-04 (5 months ago)
Launch vehicle
FALCON 9
Launch site
Air Force Eastern Test Range (AFETR)
Object type
Payload
Rocket body
Debris
Shape & HBR
Box + 2 Pan, 29 m
Radar Cross Section
36.964 m², Large (>1 m²)

Expand to show TLE details & history

TLE from 16 hours ago
0 STARLINK-11442
1 62885U 25024G   25183.18992982  .00198561  00000-0  15069-2 0  9992
2 62885  42.9992 251.0151 0001068 217.2809 142.7984 15.70956038 24077
Epoch: 2025-07-02T04:33Z
TLE epoch observation values (Epoch: 2025-07-02T04:33:29.936Z)
Latitude
-0.00006°
Longitude
-97.83429°
Altitude
356.507 km
Speed
7.697 km/s
True Right ascension
16h 44m 03s
True Declination
0° 00' 00"
Sunlit
Object was in full shadow at epoch
Visualization orbit readout
Latitude
39.83833°
Longitude
15.37957°
Altitude
358.109 km
Speed
7.7 km/s
Apparent Right ascension
22h 12m 57s
Apparent Declination
1° 29' 34"
Sunlit
Object is in daylight
Visualization observer readout
Local Sidereal Time
08:01:03
Azimuth
315.724° NNW
Elevation
-38.79°
Doppler factor
1
Orbital elements
Apogee altitude
358.865 km
Perigee altitude
357.426 km
Semi-major axis
6,736.282 km
Eccentricity
0.00011
Inclination
42.9992°
RAAN
251.0151°
Arg. of periapsis
217.2809°
True anomaly
Unknown
Mean anomaly
142.7984°
Eccentric anomaly
Unknown
Mean motion
3.92566 °/min
Orbital period
91.7 mins
BSTAR
0.0015069
Loading maneuver chart data...
Loading SW <> Apogee altitude chart data...
Loading historical data...
Loading historical data...
Loading historical data...
Loading historical data...
Loading historical data...
Loading historical data...
Loading historical data...

STARLINK-11442 Visibility forecast

Observer location: undefined°, undefined°

Span
Click to sort rows by Start time (UTC) header in descending order
Start Az.
Max El. time (UTC)
Max El. Az.
Max El.
End time (UTC)
End Az.
4 mins2025-07-03 08:16:02.509Z232.036° WSW2025-07-03 08:18:02.509Z126.944° SE39.753°2025-07-03 08:20:02.509Z78.721° E
4 mins2025-07-03 11:29:02.509Z305.523° NW2025-07-03 11:30:02.509Z353.206° N39.231°2025-07-03 11:33:02.509Z91.28° ESE
|